Regional Weather Roundup
Issued by NWS Albany, NY

Home | Current Version | Previous Version | Text Only | Print | Product List | Glossary On
Versions: 1 2 3 4 5 6 7 8 9 10 11 12 13 14 15 16 17 18 19 20 21 22 23 24 25 26 27
000
ASUS41 KALY 161510
RWRALY

NEW YORK STATE HOURLY WEATHER ROUNDUP
NATIONAL WEATHER SERVICE ALBANY NY
1100 AM EDT WED APR 16 2014

NOTE: "FAIR" INDICATES FEW OR NO CLOUDS BELOW 12,000 FEET WITH NO
SIGNIFICANT WEATHER AND/OR NO OBSTRUCTIONS TO VISIBILITY.

NYZ032-033-038>043-046>054-057>066-NYZ062>081-161600-
EAST


CITY           SKY/WX    TMP DP  RH WIND       PRES   REMARKS
ALBANY         MOSUNNY   31  11  43 NW16      30.38R WCI  20
GLENS FALLS    SUNNY     30  14  51 NW15G21   30.36R WCI  19
POUGHKEEPSIE   SUNNY     37  22  54 NE12      30.34R WCI  29
NEWBURGH       SUNNY     36  21  55 VRB5      30.34R WCI  32
MONTGOMERY     SUNNY     37  17  44 NW14G22   30.33R WCI  28
WHITE PLAINS   SUNNY     34  20  56 N16G24    30.31R WCI  24
ISLIP          MOSUNNY   38  18  44 N18G32    30.29R WCI  28
NEW YORK CITY  MOSUNNY   37  15  40 NW13G24   30.35R WCI  29
CENTRAL PARK   SUNNY     38  17  42 N9G18     30.37R WCI  31
$$

NYZ005>009-017-018-044>046-055-056-161600-
CENTRAL


CITY           SKY/WX    TMP DP  RH WIND       PRES   REMARKS
FULTON         CLOUDY    27  15  61 NW10      30.47R WCI  17
SYRACUSE       FLURRIES  28  19  69 NW10      30.46R WCI  19
ROME           SUNNY     26  11  52 NW14      30.45R WCI  14
ELMIRA         CLOUDY    31  14  49 NW8       30.44R WCI  23
BINGHAMTON     PTSUNNY   26  13  57 N14       30.36R WCI  14
MONTICELLO     SUNNY     28  14  54 NW18      30.34R WCI  16
$$

NYZ026>034-041>043-161600-
NORTH


CITY           SKY/WX    TMP DP  RH WIND       PRES   REMARKS
WATERTOWN      SUNNY     28   9  44 NW12G17   30.47R WCI  18
FORT DRUM      NOT AVBL
MASSENA        MOSUNNY   24  11  57 W12       30.46R WCI  13
SARANAC LAKE   CLOUDY    18   8  65 NW8G18    30.29R WCI   8
PLATTSBURGH    SUNNY     26  10  50 NW9G21    30.40R WCI  17
$$

NYZ001>004-010>016-019>021-161600-
WEST


CITY           SKY/WX    TMP DP  RH WIND       PRES   REMARKS
NIAGARA FALLS  MOSUNNY   31  14  49 NW8       30.48R WCI  23
BUFFALO        PTSUNNY   31  13  47 W10       30.48R WCI  22
DUNKIRK        SUNNY     30  13  49 NW6       30.51R WCI  24
JAMESTOWN      PTSUNNY   25  10  54 W5        30.44R WCI  19
WELLSVILLE     MOSUNNY   25   9  50 N8G18     30.40R WCI  16
ROCHESTER      MOSUNNY   31  13  47 NW12G17   30.48R WCI  22
PENN YAN       CLOUDY    29  16  58 NW9G17    30.45R WCI  20
$$

             KEY
       WCI = WIND CHILL INDEX
       VSB = VISIBILITY
       HX  = HEAT INDEX
$$



USA.gov is the U.S. government's official web portal to all federal, state and local government web resources and services.